Gimpo International Airport
RKSS : now visible

Airfield :











YOU CAN JOIN US ON...

 
LOGIN :

Register | Disclaimer

   EN    FR    IT 

 









Legend :    VFR   Marginal VFR   IFR   Intensive IFR   Very Intensive IFR
Visi :
Ceiling :
>= 8 km
>= 3000ft
5 to 8 km
1000 to 3000 ft
1500m to 5 km
500 to 1000 ft
800 to 1500m
200 to 500 ft
< 800m
< 200 ft
Symbols :   Thunderstorms  Fog  Heavy snow  Heavy precipitations  Wind > 20 kt






- Airport Elevation : 58 ft
- IATA code : GMP


RKSS - Gimpo International

CURRENT METAR :
  • 011500Z 06004KT 030V090 CAVOK 05/01 Q1020 NOSIG

EXPIRED METARs :
  • 011400Z 32005KT CAVOK 05/00 Q1020 NOSIG
  • 011300Z 02007KT CAVOK 07/00 Q1019 NOSIG

TAF TAF RKSS
Valid from the 01 at 12:00 until the 02 at 18:00 UTC


011100Z 0112/0218 36010KT 7000 NSC TN01/0121Z TX16/0206Z
BECMG 0118/0119 33005KT 4200 BR
BECMG 0123/0124 26008KT 6000 NSW
BECMG 0215/0216 28006KT 4200 BR



MET'MAP, your aeronautical weather chart ! - Copyright ORBIFLY December 2007 - Disclaimer

ORBIFLY MET'MAP TEAM :

Programming & Development : Alexandra Zaïnal
Concept & original design : Baudouin d'Aumeries
Assistance for programming : Marc-Olivier Méhu
Technical & hardware support : Manuel Goepfert

Contact : metmap@orbifly.com




SOURCES & CREDITS :

   NOAA       Earth
Advisory